| time (UTC) | temp F | wind direction | speed MPH | gust MPH | rain 1hr in | rain 24hr in | rain mn in | humidity % | barometer mb |
| 20260509001408 | 60 | 299 | 2.0 | 3.0 | 0.00 | 0.01 | 0.00 | 83 | 1015.4 |
| 20260509000907 | 60 | 279 | 2.0 | 3.0 | 0.00 | 0.01 | 0.00 | 83 | 1015.4 |
| 20260509000407 | 60 | 309 | 2.0 | 2.0 | 0.00 | 0.01 | 0.00 | 83 | 1015.3 |
| 20260508235908 | 60 | 297 | 2.0 | 3.0 | 0.00 | 0.01 | 0.00 | 84 | 1015.3 |
| 20260508235407 | 60 | 319 | 1.0 | 2.0 | 0.00 | 0.01 | 0.00 | 84 | 1015.3 |
| 20260508234907 | 60 | 330 | 1.0 | 2.0 | 0.00 | 0.01 | 0.00 | 84 | 1015.4 |
| 20260508234407 | 60 | 18 | 0.0 | 1.0 | 0.00 | 0.01 | 0.00 | 84 | 1015.4 |
| 20260508233407 | 60 | 18 | 0.0 | 1.0 | 0.00 | 0.01 | 0.00 | 83 | 1015.4 |
| 20260508232407 | 60 | 18 | 0.0 | 3.0 | 0.00 | 0.01 | 0.00 | 83 | 1015.5 |
| 20260508231908 | 60 | 40 | 0.0 | 2.0 | 0.00 | 0.01 | 0.00 | 83 | 1015.5 |
| 20260508231407 | 60 | 48 | 1.0 | 2.0 | 0.00 | 0.01 | 0.00 | 83 | 1015.6 |
| 20260508230906 | 60 | 327 | 1.0 | 3.0 | 0.00 | 0.01 | 0.00 | 83 | 1015.5 |
| 20260508230407 | 61 | 136 | 1.0 | 3.0 | 0.00 | 0.01 | 0.00 | 83 | 1015.6 |
| 20260508225908 | 61 | 49 | 1.0 | 3.0 | 0.00 | 0.01 | 0.00 | 83 | 1015.6 |
| 20260508225407 | 61 | 41 | 2.0 | 3.0 | 0.00 | 0.01 | 0.00 | 83 | 1015.6 |
| 20260508224906 | 61 | 312 | 1.0 | 3.0 | 0.00 | 0.01 | 0.00 | 83 | 1015.7 |
| 20260508223908 | 61 | 48 | 2.0 | 3.0 | 0.00 | 0.01 | 0.00 | 83 | 1015.8 |
| 20260508222909 | 61 | 49 | 2.0 | 3.0 | 0.00 | 0.01 | 0.00 | 84 | 1015.7 |
| 20260508222408 | 61 | 48 | 1.0 | 3.0 | 0.00 | 0.01 | 0.00 | 84 | 1015.8 |
| 20260508221908 | 61 | 104 | 0.0 | 3.0 | 0.00 | 0.01 | 0.00 | 84 | 1015.7 |
| 20260508221407 | 61 | 49 | 1.0 | 2.0 | 0.00 | 0.01 | 0.00 | 83 | 1015.7 |
| 20260508220907 | 61 | 53 | 1.0 | 2.0 | 0.00 | 0.01 | 0.00 | 83 | 1015.7 |
| 20260508215907 | 61 | 282 | 1.0 | 3.0 | 0.00 | 0.02 | 0.00 | 83 | 1015.6 |
| 20260508215407 | 61 | 293 | 2.0 | 3.0 | 0.00 | 0.02 | 0.17 | 83 | 1015.5 |
| 20260508214907 | 61 | 340 | 1.0 | 3.0 | 0.00 | 0.02 | 0.17 | 83 | 1015.5 |
| 20260508213907 | 61 | 23 | 0.0 | 0.0 | 0.00 | 0.02 | 0.17 | 83 | 1015.5 |
| 20260508212907 | 61 | 23 | 1.0 | 3.0 | 0.00 | 0.02 | 0.17 | 83 | 1015.4 |
| 20260508212407 | 61 | 293 | 1.0 | 2.0 | 0.00 | 0.02 | 0.17 | 83 | 1015.3 |
| 20260508211907 | 61 | 316 | 1.0 | 2.0 | 0.00 | 0.02 | 0.17 | 83 | 1015.2 |
| 20260508211407 | 61 | 330 | 0.0 | 3.0 | 0.00 | 0.02 | 0.17 | 83 | 1015.2 |
| 20260508210407 | 61 | 300 | 1.0 | 3.0 | 0.00 | 0.02 | 0.17 | 83 | 1015.2 |
| 20260508205908 | 61 | 321 | 1.0 | 3.0 | 0.00 | 0.02 | 0.17 | 83 | 1015.1 |
| 20260508205406 | 61 | 44 | 1.0 | 2.0 | 0.00 | 0.02 | 0.17 | 84 | 1015.0 |
| 20260508204909 | 61 | 335 | 1.0 | 3.0 | 0.00 | 0.02 | 0.17 | 84 | 1015.0 |
| 20260508204408 | 61 | 314 | 2.0 | 3.0 | 0.00 | 0.02 | 0.17 | 84 | 1015.0 |
| 20260508203908 | 61 | 305 | 2.0 | 3.0 | 0.00 | 0.02 | 0.17 | 84 | 1015.1 |
| 20260508203407 | 61 | 9 | 1.0 | 3.0 | 0.00 | 0.02 | 0.17 | 83 | 1015.0 |
| 20260508202907 | 61 | 313 | 1.0 | 3.0 | 0.00 | 0.02 | 0.17 | 83 | 1014.9 |
| 20260508202411 | 61 | 335 | 3.0 | 3.0 | 0.00 | 0.02 | 0.17 | 83 | 1014.9 |
| 20260508201908 | 61 | 336 | 2.0 | 3.0 | 0.00 | 0.02 | 0.17 | 82 | 1014.9 |
| 20260508201407 | 62 | 299 | 2.0 | 3.0 | 0.00 | 0.02 | 0.17 | 82 | 1015.0 |
| 20260508200909 | 62 | 318 | 2.0 | 3.0 | 0.00 | 0.02 | 0.17 | 82 | 1015.1 |
| 20260508200407 | 62 | 340 | 1.0 | 3.0 | 0.00 | 0.02 | 0.17 | 82 | 1015.0 |
| 20260508195908 | 62 | 313 | 2.0 | 3.0 | 0.00 | 0.02 | 0.17 | 81 | 1014.9 |
| 20260508195407 | 62 | 256 | 1.0 | 3.0 | 0.00 | 0.02 | 0.17 | 82 | 1014.9 |
| 20260508194410 | 62 | 77 | 2.0 | 3.0 | 0.00 | 0.02 | 0.17 | 82 | 1014.8 |
| 20260508193408 | 62 | 332 | 1.0 | 3.0 | 0.00 | 0.02 | 0.17 | 82 | 1014.6 |
| 20260508192909 | 62 | 336 | 2.0 | 3.0 | 0.00 | 0.02 | 0.17 | 82 | 1014.5 |
| 20260508192407 | 62 | 298 | 2.0 | 3.0 | 0.00 | 0.02 | 0.17 | 82 | 1014.4 |
| 20260508191908 | 62 | 311 | 3.0 | 3.0 | 0.00 | 0.02 | 0.17 | 82 | 1014.4 |
| 20260508191407 | 63 | 312 | 3.0 | 3.0 | 0.00 | 0.02 | 0.17 | 81 | 1014.4 |
| 20260508190908 | 63 | 9 | 2.0 | 3.0 | 0.00 | 0.02 | 0.17 | 81 | 1014.2 |
| 20260508185408 | 63 | 312 | 2.0 | 3.0 | 0.00 | 0.02 | 0.17 | 81 | 1014.0 |
| 20260508184907 | 63 | 289 | 1.0 | 3.0 | 0.00 | 0.02 | 0.17 | 81 | 1013.8 |
| 20260508184408 | 63 | 329 | 1.0 | 5.0 | 0.00 | 0.02 | 0.17 | 81 | 1013.7 |
| 20260508183908 | 63 | 302 | 2.0 | 5.0 | 0.00 | 0.02 | 0.17 | 81 | 1013.5 |
| 20260508182907 | 63 | 307 | 2.0 | 3.0 | 0.00 | 0.02 | 0.17 | 81 | 1013.3 |
| 20260508181907 | 64 | 280 | 2.0 | 5.0 | 0.00 | 0.02 | 0.17 | 81 | 1013.0 |
| 20260508180908 | 64 | 268 | 2.0 | 3.0 | 0.00 | 0.03 | 0.17 | 82 | 1012.9 |
| 20260508180407 | 64 | 268 | 2.0 | 3.0 | 0.00 | 0.03 | 0.17 | 82 | 1012.8 |
| 20260508175907 | 64 | 278 | 2.0 | 3.0 | 0.00 | 0.03 | 0.17 | 82 | 1012.7 |
| 20260508175407 | 64 | 293 | 2.0 | 3.0 | 0.00 | 0.04 | 0.17 | 80 | 1012.7 |
| 20260508174907 | 64 | 260 | 1.0 | 3.0 | 0.00 | 0.04 | 0.17 | 79 | 1012.6 |
| 20260508174407 | 64 | 283 | 2.0 | 3.0 | 0.00 | 0.04 | 0.17 | 79 | 1012.5 |
| 20260508173908 | 64 | 310 | 2.0 | 3.0 | 0.00 | 0.04 | 0.17 | 79 | 1012.5 |
| 20260508173408 | 64 | 299 | 2.0 | 3.0 | 0.00 | 0.04 | 0.17 | 79 | 1012.4 |
| 20260508172907 | 64 | 294 | 2.0 | 3.0 | 0.00 | 0.04 | 0.17 | 79 | 1012.4 |
| 20260508172414 | 64 | 299 | 2.0 | 3.0 | 0.00 | 0.04 | 0.17 | 79 | 1012.3 |
| 20260508171908 | 65 | 289 | 2.0 | 3.0 | 0.00 | 0.04 | 0.17 | 79 | 1012.3 |
| 20260508171407 | 65 | 258 | 2.0 | 3.0 | 0.00 | 0.04 | 0.17 | 79 | 1012.1 |
| 20260508170907 | 65 | 284 | 2.0 | 3.0 | 0.00 | 0.04 | 0.17 | 79 | 1012.1 |
| 20260508170408 | 65 | 257 | 2.0 | 3.0 | 0.00 | 0.04 | 0.17 | 79 | 1012.1 |
| 20260508165407 | 65 | 269 | 2.0 | 3.0 | 0.00 | 0.04 | 0.17 | 80 | 1011.9 |
| 20260508164907 | 65 | 259 | 2.0 | 3.0 | 0.00 | 0.04 | 0.17 | 80 | 1011.8 |
| 20260508164407 | 65 | 278 | 2.0 | 3.0 | 0.00 | 0.04 | 0.17 | 80 | 1011.8 |
| 20260508163407 | 65 | 258 | 3.0 | 3.0 | 0.00 | 0.04 | 0.17 | 79 | 1011.7 |
| 20260508162907 | 65 | 265 | 2.0 | 3.0 | 0.00 | 0.04 | 0.17 | 80 | 1011.6 |
| 20260508162408 | 65 | 249 | 2.0 | 3.0 | 0.00 | 0.05 | 0.17 | 80 | 1011.5 |
| 20260508161407 | 65 | 263 | 3.0 | 6.0 | 0.00 | 0.10 | 0.17 | 81 | 1011.4 |
| 20260508160907 | 65 | 280 | 3.0 | 6.0 | 0.00 | 0.10 | 0.17 | 81 | 1011.3 |
| 20260508160407 | 65 | 259 | 3.0 | 3.0 | 0.00 | 0.11 | 0.17 | 82 | 1011.3 |
| 20260508155907 | 65 | 269 | 3.0 | 6.0 | 0.00 | 0.11 | 0.17 | 81 | 1011.3 |
| 20260508155407 | 65 | 262 | 3.0 | 6.0 | 0.00 | 0.11 | 0.17 | 81 | 1011.3 |
| 20260508154907 | 65 | 267 | 3.0 | 3.0 | 0.00 | 0.12 | 0.17 | 81 | 1011.2 |
| 20260508154408 | 65 | 248 | 3.0 | 3.0 | 0.00 | 0.12 | 0.17 | 81 | 1011.2 |
| 20260508153407 | 65 | 259 | 3.0 | 3.0 | 0.00 | 0.12 | 0.17 | 81 | 1011.2 |
| 20260508152906 | 65 | 262 | 3.0 | 6.0 | 0.00 | 0.12 | 0.17 | 81 | 1011.1 |
| 20260508152408 | 65 | 266 | 3.0 | 3.0 | 0.00 | 0.12 | 0.17 | 81 | 1011.1 |
| 20260508151906 | 65 | 259 | 3.0 | 6.0 | 0.00 | 0.12 | 0.17 | 81 | 1011.1 |
| 20260508151407 | 65 | 254 | 3.0 | 6.0 | 0.00 | 0.12 | 0.17 | 81 | 1011.1 |
| 20260508150907 | 65 | 258 | 3.0 | 3.0 | 0.00 | 0.12 | 0.17 | 80 | 1011.0 |
| 20260508150407 | 65 | 260 | 3.0 | 6.0 | 0.00 | 0.12 | 0.17 | 82 | 1010.9 |
| 20260508145907 | 65 | 251 | 3.0 | 5.0 | 0.00 | 0.12 | 0.17 | 82 | 1010.9 |
| 20260508145406 | 65 | 270 | 3.0 | 3.0 | 0.00 | 0.12 | 0.17 | 82 | 1010.8 |
| 20260508144908 | 65 | 259 | 3.0 | 3.0 | 0.00 | 0.12 | 0.17 | 81 | 1010.8 |
| 20260508144407 | 65 | 267 | 3.0 | 3.0 | 0.00 | 0.12 | 0.17 | 81 | 1010.9 |
| 20260508143407 | 65 | 255 | 3.0 | 3.0 | 0.00 | 0.12 | 0.17 | 81 | 1010.8 |
| 20260508142907 | 65 | 247 | 3.0 | 5.0 | 0.00 | 0.12 | 0.17 | 81 | 1010.8 |
| 20260508142407 | 65 | 264 | 3.0 | 6.0 | 0.00 | 0.12 | 0.17 | 81 | 1010.9 |
| 20260508141406 | 65 | 254 | 2.0 | 3.0 | 0.00 | 0.12 | 0.17 | 82 | 1010.9 |
| 20260508140907 | 65 | 236 | 3.0 | 3.0 | 0.00 | 0.12 | 0.17 | 82 | 1010.8 |
| 20260508140407 | 66 | 243 | 3.0 | 3.0 | 0.00 | 0.12 | 0.17 | 82 | 1010.7 |
| 20260508135407 | 65 | 269 | 3.0 | 3.0 | 0.00 | 0.12 | 0.17 | 81 | 1010.7 |
| 20260508134907 | 65 | 256 | 3.0 | 3.0 | 0.00 | 0.12 | 0.17 | 81 | 1010.7 |
| 20260508134407 | 65 | 258 | 3.0 | 5.0 | 0.00 | 0.12 | 0.17 | 80 | 1010.7 |
| 20260508133907 | 66 | 257 | 3.0 | 5.0 | 0.00 | 0.12 | 0.17 | 80 | 1010.7 |
| 20260508133407 | 66 | 247 | 3.0 | 3.0 | 0.00 | 0.13 | 0.17 | 81 | 1010.8 |
| 20260508132907 | 66 | 246 | 2.0 | 3.0 | 0.00 | 0.13 | 0.17 | 81 | 1010.7 |
| 20260508132407 | 66 | 258 | 3.0 | 6.0 | 0.00 | 0.13 | 0.17 | 82 | 1010.7 |
| 20260508131905 | 65 | 257 | 2.0 | 3.0 | 0.00 | 0.13 | 0.17 | 83 | 1010.7 |
| 20260508131407 | 65 | 257 | 3.0 | 5.0 | 0.00 | 0.14 | 0.17 | 85 | 1010.8 |
| 20260508130907 | 64 | 249 | 2.0 | 3.0 | 0.00 | 0.14 | 0.17 | 88 | 1010.7 |
| 20260508125908 | 64 | 222 | 2.0 | 3.0 | 0.00 | 0.14 | 0.17 | 90 | 1010.7 |
| 20260508125407 | 63 | 238 | 2.0 | 3.0 | 0.00 | 0.14 | 0.17 | 90 | 1010.7 |
| 20260508124906 | 63 | 239 | 3.0 | 3.0 | 0.00 | 0.14 | 0.17 | 91 | 1010.7 |
| 20260508124407 | 63 | 236 | 3.0 | 3.0 | 0.00 | 0.14 | 0.17 | 91 | 1010.7 |
| 20260508123907 | 63 | 237 | 3.0 | 3.0 | 0.00 | 0.14 | 0.17 | 91 | 1010.7 |
| 20260508122907 | 63 | 234 | 3.0 | 5.0 | 0.00 | 0.14 | 0.17 | 91 | 1010.7 |
| 20260508122408 | 63 | 234 | 3.0 | 3.0 | 0.00 | 0.14 | 0.17 | 91 | 1010.7 |
| 20260508121907 | 63 | 240 | 3.0 | 5.0 | 0.00 | 0.14 | 0.17 | 91 | 1010.7 |
| 20260508121406 | 63 | 238 | 3.0 | 3.0 | 0.00 | 0.14 | 0.17 | 91 | 1010.7 |
| 20260508120908 | 63 | 238 | 3.0 | 3.0 | 0.00 | 0.14 | 0.17 | 90 | 1010.7 |
| 20260508120406 | 63 | 235 | 3.0 | 3.0 | 0.00 | 0.14 | 0.17 | 90 | 1010.6 |
| 20260508115908 | 63 | 232 | 3.0 | 5.0 | 0.00 | 0.14 | 0.17 | 89 | 1010.6 |
| 20260508115407 | 63 | 233 | 3.0 | 3.0 | 0.00 | 0.14 | 0.17 | 89 | 1010.5 |
| 20260508114908 | 63 | 247 | 2.0 | 3.0 | 0.00 | 0.14 | 0.17 | 89 | 1010.5 |
| 20260508114406 | 63 | 231 | 2.0 | 6.0 | 0.00 | 0.14 | 0.17 | 89 | 1010.5 |
| 20260508113906 | 63 | 265 | 3.0 | 6.0 | 0.00 | 0.14 | 0.17 | 89 | 1010.4 |
| 20260508113407 | 63 | 263 | 3.0 | 3.0 | 0.00 | 0.14 | 0.17 | 89 | 1010.4 |
| 20260508112407 | 63 | 263 | 3.0 | 3.0 | 0.00 | 0.14 | 0.17 | 90 | 1010.4 |
| 20260508111907 | 63 | 266 | 3.0 | 3.0 | 0.00 | 0.14 | 0.17 | 90 | 1010.4 |
| 20260508111407 | 63 | 258 | 1.0 | 3.0 | 0.00 | 0.14 | 0.17 | 91 | 1010.4 |
| 20260508110906 | 63 | 246 | 2.0 | 3.0 | 0.01 | 0.14 | 0.17 | 91 | 1010.5 |
| 20260508110406 | 63 | 242 | 3.0 | 3.0 | 0.01 | 0.14 | 0.17 | 91 | 1010.5 |
| 20260508105906 | 62 | 257 | 3.0 | 3.0 | 0.01 | 0.14 | 0.17 | 91 | 1010.6 |
| 20260508105405 | 62 | 241 | 2.0 | 3.0 | 0.01 | 0.14 | 0.17 | 92 | 1010.7 |
| 20260508104906 | 62 | 231 | 2.0 | 3.0 | 0.01 | 0.14 | 0.17 | 92 | 1010.7 |
| 20260508104408 | 62 | 237 | 2.0 | 3.0 | 0.01 | 0.14 | 0.17 | 92 | 1010.8 |
| 20260508102906 | 62 | 253 | 2.0 | 3.0 | 0.01 | 0.14 | 0.17 | 92 | 1010.9 |
| 20260508102411 | 61 | 242 | 2.0 | 3.0 | 0.01 | 0.14 | 0.17 | 91 | 1010.9 |
| 20260508101907 | 62 | 238 | 2.0 | 3.0 | 0.01 | 0.14 | 0.17 | 91 | 1010.9 |
| 20260508101411 | 62 | 243 | 3.0 | 3.0 | 0.01 | 0.14 | 0.17 | 91 | 1010.8 |